[[{"header":{"parameterUnit":"m.s-1","parameterCategory":1,"la1":30.2991,"la2":30.254,"lo1":-89.0895,"lo2":-89.0444,"dy":0.0017,"dx":0.0017,"nx":28,"ny":28,"refTime":"2025-04-19T09:00:00:Z","depth":0,"parameterNumber":2,"parameterNumberName":"U-component_of_WINDS"},"data":[0,0,0,0,0,0,0,0,0,0,0,0,0,0,0,0,0,0,0,0,0,0,0,0,0,0,0,0,0,0,0,0,0,0,0,0,0,0,0,0,0,0,0,0,0,0,0,0,0,0,0,0,0,0,0,0,0,0,-5.5088,-5.5089,0,-5.516,-5.516,-5.5161,-5.5091,-5.5088,-5.5085,-5.5082,-5.5152,-5.5156,-5.516,0,0,0,0,0,0,0,0,0,0,0,0,0,-5.4885,-5.4889,-5.5088,-5.5089,-5.509,-5.516,-5.5161,-5.5161,-5.5091,-5.5088,-5.5084,-5.5081,-5.515,-5.5156,-5.5161,0,0,0,0,0,0,0,0,0,0,0,0,0,-5.4966,-5.489,-5.5088,-5.5063,-5.5061,-5.5159,-5.5161,-5.5162,-5.5092,-5.5088,-5.5083,-5.508,-5.5149,-5.5155,-5.5162,-5.5286,0,0,-5.5182,-5.5185,0,0,0,0,0,0,0,0,-5.4962,-5.4974,-5.5066,-5.5065,-5.5063,-5.5112,-5.5114,-5.5203,-5.5093,-5.508,-5.5082,-5.5078,-5.5142,-5.5149,-5.5171,-5.5289,-5.5292,-5.5183,-5.5187,-5.5189,-5.5191,0,0,0,0,0,0,0,-5.4956,-5.497,-5.5116,-5.5067,-5.5066,-5.5047,-5.5054,-5.5131,-5.5133,-5.5081,-5.5076,-5.5086,-5.514,-5.5165,-5.5172,-5.5293,-5.5182,-5.5188,-5.5192,-5.5195,-5.5515,-5.552,0,0,0,0,0,0,-5.4954,-5.4966,-5.5114,-5.5118,-5.5001,-5.5054,-5.5062,-5.5101,-5.5132,-5.5133,-5.5089,-5.5082,-5.5156,-5.5164,-5.5174,-5.532,-5.5189,-5.5196,-5.5199,-5.5511,-5.5516,-5.5521,0,0,0,0,0,0,-5.495,-5.4968,-5.5111,-5.5041,-5.5058,-5.5062,-5.5106,-5.5104,-5.5129,-5.5139,-5.5138,-5.5114,-5.5153,-5.5165,-5.5259,-5.5322,-5.5199,-5.5205,-5.5505,-5.5512,-5.5519,-5.5614,0,0,0,0,0,0,-5.4944,-5.4967,-5.5015,-5.5043,-5.5062,-5.5196,-5.511,-5.5109,-5.5141,-5.5132,-5.5162,-5.5163,-5.515,-5.5249,-5.5265,-5.5329,-5.521,-5.55,-5.5509,-5.5517,-5.5606,-5.5624,-5.5639,0,0,0,0,0,-5.4937,-5.5039,-5.5018,-5.5036,-5.5123,-5.5199,-5.521,-5.5195,-5.5146,-5.5194,-5.52,-5.5162,-5.5313,-5.5259,-5.5277,-5.5343,-5.5496,-5.5506,-5.5516,-5.5598,-5.562,-5.5639,0,0,0,0,0,0,-5.5017,-5.5042,-5.5019,-5.5133,-5.5165,-5.5187,-5.5247,-5.5219,-5.5264,-5.5254,-5.5232,-5.5239,-5.5338,-5.535,-5.529,-5.5465,-5.5396,-5.541,-5.5453,-5.5474,-5.549,-5.5484,-5.5215,0,0,0,0,0,-5.5048,-5.511,-5.5128,-5.5226,-5.5243,-5.5243,-5.5276,-5.5261,-5.5293,-5.5306,-5.5319,-5.535,-5.5404,-5.544,-5.549,-5.5608,-5.5612,-5.5662,-5.5679,-5.5693,-5.5704,-5.5765,-5.5787,-5.5555,-5.5554,-5.5554,0,0,-5.5112,-5.5133,-5.5173,-5.5242,-5.5265,-5.5328,-5.5254,-5.5324,-5.537,-5.5316,-5.5404,-5.5416,-5.5449,-5.5554,-5.5602,-5.5567,-5.577,-5.5706,-5.5717,-5.5721,-5.5778,-5.58,-5.582,-5.5561,-5.556,-5.5559,0,0,-5.526,-5.5284,-5.5367,-5.5392,-5.5429,-5.5428,-5.5448,-5.5476,-5.5481,-5.5571,-5.5531,-5.5584,-5.5679,-5.5703,-5.5728,-5.5887,-5.5852,-5.5904,-5.599,-5.605,-5.6068,-5.6084,-5.6138,-5.6158,-5.5916,-5.5916,-5.5916,0,-5.5334,-5.5429,-5.5413,-5.5486,-5.5517,-5.5473,-5.5556,-5.5581,-5.5631,-5.5653,-5.5615,-5.5732,-5.5751,-5.5861,-5.5899,-5.5922,-5.5943,-5.5899,-5.6067,-5.6083,-5.6098,-5.6149,-5.617,-5.5922,-5.5921,-5.5921,-5.592,0,-5.5517,-5.5583,-5.5646,-5.5697,-5.5736,-5.5813,-5.5808,-5.5848,-5.5831,-5.5834,-5.5925,-5.5947,-5.6,-5.6026,-5.6009,-5.6133,-5.6111,-5.6071,-5.6001,-5.6126,-5.6174,-5.6194,-5.5931,-5.5928,-5.5927,-5.5925,0,0,-5.5715,-5.5758,-5.5781,-5.5803,-5.584,-5.589,-5.5966,-5.6019,-5.6053,-5.609,-5.6151,-5.6232,-5.6195,-5.6224,-5.621,-5.6263,-5.6384,-5.6216,-5.6216,-5.6244,-5.6519,-5.6547,-5.6571,-5.6363,-5.6367,-5.637,-5.6516,0,-5.5862,-5.5994,-5.5983,-5.6107,-5.6166,-5.6126,-5.6191,-5.622,-5.6225,-5.6275,-5.628,-5.6337,-5.6285,-5.6302,-5.6353,-5.6359,-5.6439,-5.6348,-5.6417,-5.6419,-5.6407,-5.6596,-5.6626,-5.6763,-5.6534,-5.6538,-5.654,0,-5.6051,-5.6096,-5.6226,-5.6254,-5.6278,-5.6338,-5.6385,-5.6435,-5.6466,-5.6466,-5.6499,-5.6475,-5.6549,-5.6481,-5.6581,-5.652,-5.6547,-5.6555,-5.6559,-5.6563,-5.6485,-5.6602,-5.6806,-5.6826,-5.657,-5.6567,-5.6565,0,-5.618,-5.6272,-5.6362,-5.6382,-5.6418,-5.646,-5.6476,-5.6504,-5.6537,-5.6578,-5.6599,-5.6649,-5.6675,-5.6713,-5.6704,-5.6655,-5.6806,-5.6736,-5.6805,-5.6805,-5.6836,-5.6834,-5.7045,-5.6859,-5.6859,-5.6858,-5.6858,0,-5.6344,-5.6424,-5.642,-5.6475,-5.6563,-5.6549,-5.6637,-5.6648,-5.6673,-5.6728,-5.6697,-5.6748,-5.6734,-5.6785,-5.6778,-5.6861,-5.6874,-5.6874,-5.687,-5.6875,-5.6875,-5.689,-5.688,-5.6864,-5.6863,-5.6862,-5.6861,0,-5.6501,-5.6501,-5.6596,-5.6622,-5.663,-5.6694,-5.6716,-5.6766,-5.6769,-5.6839,-5.6855,-5.6859,-5.6917,-5.6912,-5.6977,-5.6973,-5.7074,-5.7061,-5.7064,-5.706,-5.7128,-5.712,-5.7354,-5.7383,-5.7181,-5.7183,-5.7185,0,-5.6604,-5.6665,-5.6698,-5.6733,-5.6753,-5.681,-5.6844,-5.6832,-5.6868,-5.6909,-5.6955,-5.701,-5.7054,-5.7149,-5.7156,-5.7206,-5.7192,-5.727,-5.7198,-5.7201,-5.7189,-5.7185,-5.719,-5.7283,-5.7286,-5.7287,-5.7289,0,-5.6786,-5.6784,-5.6834,-5.6885,-5.6926,-5.6965,-5.7001,-5.7031,-5.7023,-5.7065,-5.7125,-5.7159,-5.7226,-5.7281,-5.7328,-5.7343,-5.7314,-5.7312,-5.733,-5.7334,-5.7332,-5.7331,-5.7099,-5.7306,-5.7304,-5.7303,-5.7302,-5.7301,-5.6918,-5.697,-5.7001,-5.7058,-5.7084,-5.7118,-5.7166,-5.7176,-5.7226,-5.728,-5.7271,-5.7337,-5.7366,-5.7427,-5.7447,-5.7498,-5.7469,-5.7496,-5.7502,-5.7508,-5.7515,-5.7327,-5.7506,-5.7506,-5.7506,-5.7505,-5.7505,0,-5.7096,-5.7115,-5.7167,-5.7218,-5.7263,-5.7235,-5.7272,-5.7311,-5.737,-5.7401,-5.7445,-5.7513,-5.7566,-5.7579,-5.7629,-5.7667,-5.7655,-5.7681,-5.7676,-5.7679,-5.7539,-5.7517,-5.7689,-5.7689,-5.7689,-5.7689,-5.7689,-5.7689,-5.7194,-5.728,-5.7281,-5.7379,-5.7396,-5.7462,-5.7486,-5.7516,-5.754,-5.7618,-5.7663,-5.7671,-5.7694,-5.7746,-5.7793,-5.7795,-5.7814,-5.7844,-5.7841,-5.7708,-5.769,-5.7672,-5.7651,-5.7849,-5.7849,-5.7977,-5.7978,-5.7979]},{"header":{"parameterUnit":"m.s-1","parameterCategory":1,"la1":30.2991,"la2":30.254,"lo1":-89.0895,"lo2":-89.0444,"dy":0.0017,"dx":0.0017,"nx":28,"ny":28,"refTime":"2025-04-19T09:00:00:Z","depth":0,"parameterNumber":3,"parameterNumberName":"V-component_of_WINDS"},"data":[0,0,0,0,0,0,0,0,0,0,0,0,0,0,0,0,0,0,0,0,0,0,0,0,0,0,0,0,0,0,0,0,0,0,0,0,0,0,0,0,0,0,0,0,0,0,0,0,0,0,0,0,0,0,0,0,0,0,3.3943,3.3945,0,3.4063,3.4064,3.4066,3.4081,3.408,3.4079,3.4078,3.4195,3.4199,3.4203,0,0,0,0,0,0,0,0,0,0,0,0,0,3.3724,3.3728,3.3943,3.3945,3.3946,3.4063,3.4064,3.4066,3.4082,3.408,3.4079,3.4078,3.4193,3.4198,3.4203,0,0,0,0,0,0,0,0,0,0,0,0,0,3.3829,3.3729,3.3943,3.3968,3.3972,3.4062,3.4064,3.4066,3.4082,3.408,3.4078,3.4077,3.4192,3.4198,3.4204,3.4276,0,0,3.4223,3.4225,0,0,0,0,0,0,0,0,3.3823,3.3837,3.3963,3.3967,3.3971,3.4056,3.403,3.4136,3.4082,3.404,3.4078,3.4076,3.4149,3.4159,3.4185,3.4281,3.4286,3.4223,3.4227,3.423,3.4231,0,0,0,0,0,0,0,3.3816,3.3832,3.399,3.3965,3.3969,3.3972,3.3985,3.405,3.4102,3.4043,3.4045,3.4059,3.4151,3.4179,3.4188,3.4288,3.4223,3.4229,3.4232,3.4235,3.4451,3.4453,0,0,0,0,0,0,3.3804,3.3826,3.3987,3.3994,3.3891,3.3977,3.3992,3.403,3.4102,3.4111,3.406,3.4059,3.4169,3.418,3.4192,3.4282,3.423,3.4236,3.4239,3.4449,3.4451,3.4453,0,0,0,0,0,0,3.38,3.3819,3.3982,3.391,3.3931,3.3983,3.4025,3.4033,3.4061,3.4115,3.4123,3.4079,3.4168,3.4183,3.4256,3.4286,3.4238,3.4244,3.4446,3.4449,3.4452,3.4461,0,0,0,0,0,0,3.3793,3.3817,3.3846,3.3911,3.3935,3.4045,3.4027,3.4037,3.4072,3.4072,3.4135,3.4144,3.4168,3.4246,3.4262,3.4294,3.4249,3.4444,3.4448,3.4451,3.4459,3.4464,3.4469,0,0,0,0,0,3.3785,3.3842,3.3847,3.3866,3.3972,3.4046,3.406,3.4089,3.4075,3.4104,3.4138,3.4142,3.428,3.4253,3.4271,3.4305,3.4442,3.4447,3.4451,3.4456,3.4463,3.4469,0,0,0,0,0,0,3.3776,3.3851,3.3857,3.3937,3.3986,3.4049,3.4086,3.4095,3.4147,3.4144,3.4176,3.419,3.4261,3.429,3.4259,3.4379,3.436,3.4368,3.4358,3.4365,3.437,3.4361,3.4254,0,0,0,0,0,3.3784,3.3839,3.3901,3.3965,3.3989,3.4034,3.4067,3.4085,3.4136,3.4156,3.4196,3.4243,3.4298,3.4333,3.4386,3.4463,3.4477,3.4496,3.4501,3.4505,3.4512,3.4555,3.4565,3.4468,3.4468,3.4468,0,0,3.3799,3.3847,3.3879,3.3964,3.4004,3.406,3.4051,3.4109,3.4151,3.4164,3.4236,3.4267,3.4322,3.4398,3.4433,3.4424,3.4542,3.4511,3.4514,3.4518,3.4561,3.457,3.4578,3.4471,3.4471,3.447,0,0,3.3856,3.3897,3.3956,3.3997,3.4059,3.4088,3.4102,3.4166,3.4187,3.426,3.4272,3.4321,3.4414,3.4453,3.4485,3.456,3.4565,3.4576,3.4603,3.4646,3.4654,3.466,3.4687,3.4696,3.4582,3.4582,3.4582,0,3.3866,3.3953,3.3985,3.4044,3.4081,3.4099,3.4158,3.4196,3.427,3.4295,3.4285,3.4404,3.4442,3.4527,3.4546,3.4571,3.4588,3.4568,3.465,3.4657,3.4664,3.469,3.47,3.4583,3.4583,3.4583,3.4583,0,3.3963,3.4023,3.4062,3.4137,3.4179,3.4238,3.4278,3.4316,3.4331,3.4361,3.4435,3.4482,3.4546,3.4568,3.4582,3.4656,3.4649,3.4644,3.4625,3.4674,3.4699,3.4709,3.4585,3.4584,3.4584,3.4584,0,0,3.4015,3.4109,3.4123,3.4158,3.4228,3.4274,3.4334,3.4399,3.4431,3.4482,3.4533,3.4612,3.4609,3.4646,3.4665,3.4702,3.4758,3.4693,3.4695,3.4704,3.4843,3.4846,3.4857,3.4763,3.4765,3.4766,3.4839,0,3.408,3.419,3.4222,3.4313,3.4369,3.4387,3.4439,3.4487,3.4517,3.4568,3.46,3.4657,3.4648,3.4671,3.4708,3.4744,3.4787,3.4739,3.4809,3.4811,3.4794,3.487,3.4873,3.4939,3.4849,3.485,3.4851,0,3.4171,3.4227,3.4325,3.439,3.4414,3.446,3.4523,3.4571,3.4626,3.4646,3.4688,3.4704,3.4766,3.4744,3.483,3.4797,3.4827,3.4849,3.4852,3.4859,3.4834,3.4879,3.4961,3.4971,3.4867,3.4866,3.4865,0,3.42,3.4299,3.4371,3.44,3.4478,3.451,3.4543,3.4597,3.4634,3.4688,3.4713,3.4772,3.4805,3.485,3.4882,3.4863,3.4965,3.4945,3.4982,3.4981,3.5002,3.5,3.509,3.5022,3.5022,3.5022,3.5022,0,3.4269,3.4328,3.4386,3.443,3.4497,3.4532,3.4597,3.4631,3.4679,3.4729,3.4747,3.4794,3.4833,3.4884,3.4909,3.4977,3.4991,3.5008,3.5013,3.5006,3.5004,3.5026,3.5022,3.5024,3.5024,3.5023,3.5023,0,3.4312,3.4354,3.4433,3.4501,3.4519,3.4566,3.4623,3.4666,3.4698,3.4761,3.4778,3.4827,3.4889,3.4925,3.5002,3.5019,3.5094,3.5097,3.5076,3.5078,3.5113,3.5109,3.522,3.5236,3.5157,3.5158,3.5159,0,3.4354,3.44,3.4474,3.451,3.4545,3.4602,3.4642,3.4678,3.4718,3.4785,3.482,3.4884,3.4936,3.5034,3.5075,3.5134,3.5139,3.5174,3.5148,3.514,3.514,3.5137,3.5142,3.5178,3.5179,3.5179,3.518,0,3.4423,3.4442,3.4499,3.4563,3.461,3.4662,3.4713,3.4741,3.4787,3.483,3.4895,3.4936,3.5016,3.5079,3.5142,3.5174,3.5185,3.5188,3.52,3.5192,3.5178,3.5187,3.5088,3.5185,3.5184,3.5184,3.5184,3.5184,3.4467,3.451,3.4569,3.4632,3.4675,3.4724,3.4768,3.4807,3.4862,3.4932,3.495,3.5017,3.5072,3.5158,3.5193,3.5245,3.5239,3.5256,3.526,3.5264,3.5265,3.517,3.5257,3.5257,3.5257,3.5257,3.5256,0,3.4538,3.4578,3.4635,3.4708,3.4758,3.4766,3.4824,3.4864,3.4924,3.4975,3.5028,3.5102,3.5163,3.5211,3.5273,3.5306,3.5313,3.5321,3.5319,3.5327,3.5267,3.5251,3.5316,3.5315,3.5315,3.5315,3.5315,3.5315,3.4581,3.4654,3.468,3.4775,3.4813,3.4882,3.4914,3.4959,3.5,3.5083,3.5135,3.5167,3.5216,3.5283,3.5339,3.5351,3.5373,3.5381,3.5394,3.5337,3.5331,3.5325,3.531,3.5386,3.5386,3.545,3.5451,3.5451]}]]